| time (UTC) | temp C | wind direction | speed KPH | gust KPH | rain 1hr cm | rain 24hr cm | rain mn cm | humidity % | barometer mb |
| 20260502071119 | 15 | 257 | 0.0 | 0.0 | 0.00 | 0.00 | 0.00 | 32 | 1019.1 |
| 20260502071113 | 15 | 240 | 0.0 | 0.0 | 0.00 | 0.00 | 0.00 | 31 | 1019.1 |
| 20260502070106 | 16 | 250 | 0.0 | 0.0 | 0.00 | 0.00 | 0.00 | 30 | 1019.1 |
| 20260502070057 | 16 | 234 | 0.0 | 0.0 | 0.00 | 0.00 | 0.00 | 28 | 1019.1 |
| 20260502065703 | 16 | 226 | 0.0 | 0.0 | 0.00 | 0.00 | 0.00 | 29 | 1019.1 |
| 20260502064551 | 16 | 280 | 0.0 | 0.0 | 0.00 | 0.00 | 0.00 | 26 | 1019.1 |
| 20260502064047 | 16 | 251 | 0.0 | 0.0 | 0.00 | 0.00 | 0.00 | 26 | 1019.1 |
| 20260502063540 | 16 | 278 | 0.0 | 0.0 | 0.00 | 0.00 | 0.00 | 25 | 1019.1 |
| 20260502063035 | 16 | 271 | 0.0 | 0.0 | 0.00 | 0.00 | 0.00 | 25 | 1019.1 |
| 20260502062533 | 16 | 265 | 0.0 | 0.0 | 0.00 | 0.00 | 0.00 | 24 | 1019.1 |
| 20260502062025 | 16 | 252 | 0.0 | 0.0 | 0.00 | 0.00 | 0.00 | 25 | 1019.1 |
| 20260502061519 | 16 | 253 | 0.0 | 0.0 | 0.00 | 0.00 | 0.00 | 25 | 1019.4 |
| 20260502061015 | 16 | 262 | 0.0 | 0.0 | 0.00 | 0.00 | 0.00 | 24 | 1019.1 |
| 20260502060508 | 16 | 227 | 0.0 | 0.0 | 0.00 | 0.00 | 0.00 | 24 | 1019.1 |
| 20260502060003 | 17 | 277 | 0.0 | 0.0 | 0.00 | 0.00 | 0.00 | 24 | 1019.4 |
| 20260502055459 | 17 | 239 | 0.0 | 0.0 | 0.00 | 0.00 | 0.00 | 24 | 1019.4 |
| 20260502054952 | 17 | 322 | 0.0 | 0.0 | 0.00 | 0.00 | 0.00 | 23 | 1019.4 |
| 20260502054446 | 17 | 272 | 0.0 | 0.0 | 0.00 | 0.00 | 0.00 | 22 | 1019.1 |
| 20260502053943 | 17 | 254 | 0.0 | 0.0 | 0.00 | 0.00 | 0.00 | 22 | 1019.1 |
| 20260502053436 | 17 | 274 | 0.0 | 0.0 | 0.00 | 0.00 | 0.00 | 22 | 1019.4 |
| 20260502052930 | 17 | 253 | 0.0 | 0.0 | 0.00 | 0.00 | 0.00 | 21 | 1019.1 |
| 20260502052426 | 17 | 271 | 0.0 | 0.0 | 0.00 | 0.00 | 0.00 | 22 | 1019.1 |
| 20260502051920 | 17 | 228 | 0.0 | 0.0 | 0.00 | 0.00 | 0.00 | 21 | 1019.1 |
| 20260502051915 | 17 | 3 | 0.0 | 0.0 | 0.00 | 0.00 | 0.00 | 21 | 1019.4 |
| 20260502050910 | 17 | 273 | 0.0 | 0.0 | 0.00 | 0.00 | 0.00 | 21 | 1019.4 |
| 20260502050403 | 17 | 271 | 0.0 | 0.0 | 0.00 | 0.00 | 0.00 | 22 | 1019.1 |
| 20260502045858 | 17 | 256 | 0.0 | 0.0 | 0.00 | 0.00 | 0.00 | 22 | 1019.4 |
| 20260502045850 | 17 | 333 | 0.0 | 0.0 | 0.00 | 0.00 | 0.00 | 22 | 1019.1 |
| 20260502045455 | 17 | 240 | 0.0 | 0.0 | 0.00 | 0.00 | 0.00 | 22 | 1019.1 |
| 20260502044341 | 17 | 277 | 0.0 | 0.0 | 0.00 | 0.00 | 0.00 | 21 | 1019.1 |
| 20260502043837 | 18 | 249 | 0.0 | 0.0 | 0.00 | 0.00 | 0.00 | 21 | 1019.1 |
| 20260502043332 | 18 | 357 | 0.0 | 0.0 | 0.00 | 0.00 | 0.00 | 20 | 1019.1 |
| 20260502043327 | 18 | 285 | 0.0 | 0.0 | 0.00 | 0.00 | 0.00 | 22 | 1019.1 |
| 20260502042320 | 18 | 290 | 0.0 | 0.0 | 0.00 | 0.00 | 0.00 | 22 | 1019.1 |
| 20260502041814 | 18 | 228 | 0.0 | 0.0 | 0.00 | 0.00 | 0.00 | 22 | 1019.1 |
| 20260502041309 | 18 | 282 | 0.0 | 0.0 | 0.00 | 0.00 | 0.00 | 22 | 1019.1 |
| 20260502040806 | 19 | 273 | 0.0 | 0.0 | 0.00 | 0.00 | 0.00 | 22 | 1018.7 |
| 20260502040759 | 19 | 321 | 0.0 | 0.0 | 0.00 | 0.00 | 0.00 | 22 | 1018.7 |
| 20260502035754 | 20 | 279 | 0.0 | 0.0 | 0.00 | 0.00 | 0.00 | 21 | 1018.4 |
| 20260502035250 | 20 | 286 | 0.0 | 0.0 | 0.00 | 0.00 | 0.00 | 23 | 1018.4 |
| 20260502034743 | 20 | 274 | 0.0 | 0.0 | 0.00 | 0.00 | 0.00 | 23 | 1018.4 |
| 20260502034238 | 20 | 251 | 0.0 | 0.0 | 0.00 | 0.00 | 0.00 | 22 | 1018.4 |
| 20260502033734 | 20 | 259 | 0.0 | 0.0 | 0.00 | 0.00 | 0.00 | 22 | 1018.4 |
| 20260502033228 | 21 | 323 | 0.0 | 0.0 | 0.00 | 0.00 | 0.00 | 21 | 1018.0 |
| 20260502032722 | 21 | 231 | 0.0 | 0.0 | 0.00 | 0.00 | 0.00 | 21 | 1018.4 |
| 20260502032219 | 21 | 244 | 0.0 | 0.0 | 0.00 | 0.00 | 0.00 | 21 | 1018.0 |
| 20260502032213 | 21 | 143 | 0.0 | 0.0 | 0.00 | 0.00 | 0.00 | 21 | 1018.0 |
| 20260502031207 | 21 | 300 | 0.0 | 0.0 | 0.00 | 0.00 | 0.00 | 20 | 1017.7 |
| 20260502030702 | 22 | 261 | 0.0 | 1.6 | 0.00 | 0.00 | 0.00 | 20 | 1018.0 |
| 20260502030156 | 22 | 288 | 0.0 | 1.6 | 0.00 | 0.00 | 0.00 | 20 | 1017.7 |
| 20260502025651 | 22 | 254 | 0.0 | 1.6 | 0.00 | 0.00 | 0.00 | 19 | 1018.0 |
| 20260502025146 | 22 | 275 | 0.0 | 1.6 | 0.00 | 0.00 | 0.00 | 18 | 1018.0 |
| 20260502024641 | 22 | 315 | 0.0 | 0.0 | 0.00 | 0.00 | 0.00 | 18 | 1018.0 |
| 20260502024635 | 23 | 335 | 0.0 | 0.0 | 0.00 | 0.00 | 0.00 | 18 | 1018.0 |
| 20260502023631 | 23 | 285 | 0.0 | 0.0 | 0.00 | 0.00 | 0.00 | 18 | 1017.7 |
| 20260502023624 | 23 | 12 | 0.0 | 1.6 | 0.00 | 0.00 | 0.00 | 17 | 1017.7 |
| 20260502022621 | 23 | 306 | 0.0 | 3.2 | 0.00 | 0.00 | 0.00 | 17 | 1018.0 |
| 20260502022615 | 23 | 285 | 0.0 | 3.2 | 0.00 | 0.00 | 0.00 | 16 | 1018.0 |
| 20260502021608 | 23 | 253 | 0.0 | 1.6 | 0.00 | 0.00 | 0.00 | 16 | 1017.7 |
| 20260502021102 | 24 | 358 | 0.0 | 1.6 | 0.00 | 0.00 | 0.00 | 15 | 1017.7 |
| 20260502020558 | 24 | 277 | 0.0 | 1.6 | 0.00 | 0.00 | 0.00 | 15 | 1017.7 |
| 20260502020052 | 24 | 231 | 0.0 | 1.6 | 0.00 | 0.00 | 0.00 | 13 | 1018.0 |
| 20260502015547 | 25 | 207 | 0.0 | 1.6 | 0.00 | 0.00 | 0.00 | 13 | 1017.7 |
| 20260502015043 | 25 | 264 | 0.0 | 1.6 | 0.00 | 0.00 | 0.00 | 12 | 1017.7 |
| 20260502014535 | 25 | 343 | 0.0 | 1.6 | 0.00 | 0.00 | 0.00 | 12 | 1017.7 |
| 20260502014032 | 25 | 248 | 0.0 | 1.6 | 0.00 | 0.00 | 0.00 | 10 | 1017.4 |
| 20260502014027 | 25 | 236 | 0.0 | 0.0 | 0.00 | 0.00 | 0.00 | 10 | 1017.7 |
| 20260502013020 | 26 | 315 | 0.0 | 0.0 | 0.00 | 0.00 | 0.00 | 10 | 1017.7 |
| 20260502012514 | 26 | 80 | 0.0 | 1.6 | 0.00 | 0.00 | 0.00 | 10 | 1017.7 |
| 20260502012010 | 26 | 234 | 0.0 | 1.6 | 0.00 | 0.00 | 0.00 | 10 | 1017.4 |
| 20260502011504 | 26 | 300 | 0.0 | 1.6 | 0.00 | 0.00 | 0.00 | 10 | 1017.7 |
| 20260502010959 | 26 | 217 | 0.0 | 1.6 | 0.00 | 0.00 | 0.00 | 10 | 1017.7 |
| 20260502010454 | 26 | 35 | 0.0 | 1.6 | 0.00 | 0.00 | 0.00 | 10 | 1017.7 |
| 20260502005948 | 27 | 193 | 0.0 | 1.6 | 0.00 | 0.00 | 0.00 | 10 | 1017.7 |
| 20260502005443 | 27 | 284 | 0.0 | 0.0 | 0.00 | 0.00 | 0.00 | 10 | 1017.7 |
| 20260502004939 | 27 | 297 | 0.0 | 1.6 | 0.00 | 0.00 | 0.00 | 10 | 1018.0 |
| 20260502004432 | 27 | 137 | 0.0 | 1.6 | 0.00 | 0.00 | 0.00 | 10 | 1017.7 |
| 20260502003927 | 27 | 123 | 0.0 | 1.6 | 0.00 | 0.00 | 0.00 | 10 | 1017.7 |
| 20260502003422 | 27 | 289 | 0.0 | 1.6 | 0.00 | 0.00 | 0.00 | 10 | 1018.0 |
| 20260502003414 | 27 | 268 | 0.0 | 3.2 | 0.00 | 0.00 | 0.00 | 10 | 1017.7 |
| 20260502003018 | 27 | 11 | 0.0 | 3.2 | 0.00 | 0.00 | 0.00 | 10 | 1017.7 |
| 20260502001907 | 27 | 269 | 0.0 | 1.6 | 0.00 | 0.00 | 0.00 | 10 | 1017.7 |
| 20260502001401 | 28 | 191 | 0.0 | 1.6 | 0.00 | 0.00 | 0.00 | 10 | 1017.7 |
| 20260502000856 | 28 | 288 | 0.0 | 1.6 | 0.00 | 0.00 | 0.00 | 10 | 1018.0 |
| 20260502000352 | 28 | 22 | 0.0 | 3.2 | 0.00 | 0.00 | 0.00 | 12 | 1018.0 |
| 20260501235845 | 28 | 352 | 0.0 | 3.2 | 0.00 | 0.00 | 0.00 | 12 | 1018.0 |
| 20260501235340 | 28 | 223 | 0.0 | 3.2 | 0.00 | 0.00 | 0.00 | 12 | 1018.0 |
| 20260501234835 | 28 | 224 | 0.0 | 3.2 | 0.00 | 0.00 | 0.00 | 12 | 1018.0 |
| 20260501234329 | 28 | 353 | 0.0 | 1.6 | 0.00 | 0.00 | 0.00 | 12 | 1018.0 |
| 20260501233824 | 28 | 277 | 0.0 | 1.6 | 0.00 | 0.00 | 0.00 | 12 | 1018.0 |
| 20260501233320 | 28 | 237 | 0.0 | 1.6 | 0.00 | 0.00 | 0.00 | 12 | 1018.0 |
| 20260501232813 | 28 | 255 | 0.0 | 1.6 | 0.00 | 0.00 | 0.00 | 12 | 1018.0 |
| 20260501232308 | 28 | 302 | 0.0 | 1.6 | 0.00 | 0.00 | 0.00 | 12 | 1018.0 |
| 20260501231803 | 28 | 351 | 0.0 | 0.0 | 0.00 | 0.00 | 0.00 | 12 | 1018.0 |
| 20260501231754 | 28 | 256 | 0.0 | 0.0 | 0.00 | 0.00 | 0.00 | 12 | 1018.0 |
| 20260501231359 | 28 | 258 | 0.0 | 0.0 | 0.00 | 0.00 | 0.00 | 12 | 1018.0 |
| 20260501230248 | 28 | 48 | 0.0 | 1.6 | 0.00 | 0.00 | 0.00 | 12 | 1018.0 |
| 20260501225743 | 27 | 226 | 0.0 | 1.6 | 0.00 | 0.00 | 0.00 | 12 | 1018.4 |
| 20260501225235 | 27 | 266 | 0.0 | 1.6 | 0.00 | 0.00 | 0.00 | 11 | 1018.4 |